Location: Unspecified
(0.0000°N, 0.0000°E)
Time: 23:34:08
(UTC+00:00)

ATLAS 5 CENTAUR DEB - Pass Details

Date: 20 February 2026
Orbit: 7343 x 34659 km, 20.8° (Epoch: 7 March)

Event Time Altitude Azimuth Distance (km) Brightness Sun altitude
Rises 18:43:03 0° 248° (WSW) 13,372 ? -7.2°
Reaches altitude 10° 18:50:57 10° 245° (WSW) 13,104 ? -9.2°
Maximum altitude 21:56:59 89° 256° (WSW) 29,311 ? -54.4°
Enters shadow 00:11:09 75° 318° (NW) 34,727 ? -79.4°
Exits shadow 01:46:46 65° 315° (NW) 34,013 ? -64.5°
Drops below altitude 10° 06:32:28 10° 92° (E) 11,694 ? 4.6°
Sets 06:39:38 0° 96° (E) 12,361 ? 6.4°
